Theta_e
325 324 319 319 320 318 322 326 322 326 329 325 326 327 328 333 333 327 334 334 333 327 332 331 331 335 336 335 336 336 335 335 333 332 334 333 331 330 330 330 329 329 329 330 330 330 330 330 330
325 324 319 315 320 319 319 319 324 325 327 328 327 331 333 336 333 332 335 334 328 326 333 328 331 335 335 335 335 335 334 332 332 332 333 333 332 330 330 329 329 329 329 330 330 330 329 329 327
323 318 315 319 317 322 322 325 323 326 325 325 330 329 331 335 333 334 335 331 326 329 331 325 332 334 335 335 335 334 333 332 333 332 333 332 332 330 329 329 328 328 328 330 330 329 329 328 326
318 318 314 320 324 322 320 326 325 325 325 326 328 332 330 332 334 334 334 328 326 331 330 325 331 334 334 334 332 331 331 331 330 330 332 333 331 330 329 328 327 328 328 329 329 328 328 328 325
317 316 320 323 323 322 323 325 324 327 326 327 328 334 335 332 331 334 332 326 324 331 330 324 326 333 334 332 330 329 329 329 329 329 331 331 330 329 328 327 326 327 328 328 327 324 325 325 324
316 317 322 323 322 322 318 323 325 325 325 328 332 334 333 332 333 334 331 323 326 331 327 325 323 332 332 330 330 327 327 329 329 327 330 330 328 328 327 326 326 326 326 325 323 323 323 324 323
317 320 324 323 323 324 318 319 325 324 325 327 330 335 332 330 333 333 328 321 329 330 328 326 323 331 330 329 329 326 325 328 327 327 328 328 326 326 326 325 323 322 320 318 321 322 322 323 323
315 320 325 323 323 326 320 319 321 324 325 324 331 334 335 329 331 331 328 326 330 330 328 326 323 325 327 327 327 325 322 325 325 326 325 325 325 326 325 323 317 314 316 316 318 322 321 321 321
320 321 325 326 325 325 319 318 318 320 322 323 325 330 331 330 331 329 329 329 331 330 328 327 327 326 325 324 326 326 323 323 322 321 322 322 321 324 324 321 317 315 313 315 316 319 320 320 320
324 322 322 323 324 323 321 317 318 323 324 327 332 332 329 330 329 327 328 328 331 330 329 327 328 329 327 326 326 327 326 325 323 321 319 318 318 317 319 320 317 316 314 314 314 317 318 319 319
322 326 320 318 320 317 316 318 317 321 324 324 329 331 328 330 329 327 327 328 328 328 329 327 327 329 329 327 327 328 328 326 324 322 320 319 318 318 316 316 317 316 316 317 318 318 319 319 319
328 324 323 322 321 323 316 315 318 318 322 321 324 331 328 330 330 329 328 328 327 327 327 327 327 326 328 329 328 328 329 327 325 323 321 322 323 322 318 315 315 315 315 316 318 319 319 319 319
325 326 324 323 323 323 315 312 315 316 316 315 328 331 329 328 331 331 330 329 329 327 324 325 327 326 325 327 329 327 328 327 324 322 324 325 325 324 321 317 315 315 315 316 318 318 318 318 318
323 324 324 325 326 325 324 318 312 313 313 325 331 332 331 329 328 330 331 330 330 330 326 323 323 325 324 324 326 327 326 324 324 322 323 326 326 325 324 320 317 317 317 319 318 319 318 318 318
325 330 329 329 327 326 315 312 311 311 311 326 330 331 331 331 330 329 330 331 331 331 330 328 324 324 323 323 323 325 325 324 323 322 321 326 326 325 325 322 322 321 320 320 319 319 319 319 319
327 328 332 329 329 329 315 320 314 312 310 312 328 328 331 331 332 332 330 328 331 331 331 330 328 328 326 325 324 325 324 324 323 322 324 324 326 326 325 322 323 322 321 321 320 320 320 319 319
326 327 329 328 327 330 320 317 314 315 308 310 311 327 330 331 330 332 332 330 328 331 331 331 330 329 329 329 328 328 327 325 324 323 327 326 325 326 326 324 323 323 322 321 320 320 320 319 318
329 328 328 330 329 327 326 318 314 313 314 311 309 307 323 329 330 330 331 332 330 328 331 331 331 331 330 329 329 329 329 328 326 327 327 327 326 325 325 323 324 324 323 322 321 320 320 318 319
324 327 328 327 327 330 330 329 326 317 312 313 312 308 307 316 326 328 328 330 331 330 329 330 330 330 330 330 329 328 328 328 328 328 328 328 327 325 325 323 324 324 324 323 322 321 320 319 320
325 326 326 327 328 329 330 329 326 322 321 315 315 315 308 309 310 320 327 328 329 330 330 329 330 330 330 329 330 329 329 329 329 328 329 328 328 326 325 324 323 324 324 324 323 322 321 320 321
328 328 326 328 326 328 327 331 329 326 317 315 314 315 316 313 310 310 318 327 328 329 329 329 330 329 330 329 329 329 329 329 329 329 329 330 329 328 327 326 325 323 323 324 324 324 323 321 321
329 326 326 329 330 334 327 335 329 327 326 322 318 317 318 317 311 310 309 318 326 328 328 328 328 329 329 329 328 328 328 328 327 327 328 330 329 329 328 327 327 325 324 323 323 324 324 323 322
327 323 325 326 330 326 322 325 327 324 324 323 319 318 319 319 317 310 309 312 320 324 328 328 328 328 329 329 328 328 327 327 327 326 326 327 329 329 329 328 328 327 326 325 323 323 324 324 323
324 324 324 324 324 328 326 324 327 321 316 319 318 316 316 317 315 313 312 312 316 321 326 328 328 328 328 329 328 328 328 327 326 327 326 326 326 326 327 328 328 328 327 326 326 324 323 323 323
325 326 326 327 325 329 321 324 327 319 315 314 314 314 310 311 311 311 309 309 316 321 324 327 328 327 328 328 328 328 328 327 327 326 326 326 326 326 326 327 327 327 327 327 326 326 324 324 323
324 325 329 331 327 325 315 326 323 318 317 319 316 315 310 307 307 309 310 308 313 319 323 325 327 328 328 327 328 328 328 327 327 327 326 326 326 326 326 326 326 327 326 326 326 326 326 325 324
324 326 320 319 306 313 315 312 310 311 311 310 308 311 311 309 304 304 305 308 309 317 321 324 326 327 328 328 328 327 328 328 327 327 327 327 326 326 326 326 326 326 326 326 326 326 326 326 325
320 319 323 321 323 321 316 312 317 313 314 319 310 307 307 306 305 303 302 304 308 312 318 322 324 326 327 328 328 329 329 328 328 328 328 327 327 327 327 327 327 327 327 327 327 325 324 324 325
322 323 323 320 318 323 316 315 308 314 312 310 309 307 306 304 303 302 301 302 305 307 314 319 323 324 326 326 327 328 329 329 329 329 329 328 329 329 328 329 329 328 328 328 328 326 325 324 324
320 322 322 325 322 313 313 316 308 307 308 304 303 303 304 302 302 300 300 301 302 305 306 317 321 323 324 325 326 327 328 328 329 329 329 329 329 329 329 329 329 330 329 329 327 326 324 324 324
Wind_Speed
19 19 11 5 4 5 2 2 1 3 2 3 4 4 6 3 3 3 1 7 20 22 19 16 15 13 15 16 17 16 15 17 16 16 17 18 16 16 17 16 17 17 18 18 19 19 19 20 19
17 14 5 2 4 3 5 3 4 2 4 8 6 4 4 2 2 5 14 11 21 22 20 16 17 15 16 17 17 16 14 17 17 16 15 17 16 15 15 15 15 16 17 18 18 17 17 17 18
10 7 3 4 3 2 3 3 5 3 7 1 4 4 5 3 1 15 6 22 23 22 19 18 19 16 17 18 16 13 12 14 16 16 14 14 15 15 15 15 15 15 17 17 18 17 18 17 17
7 5 4 3 2 4 4 4 4 6 3 3 5 6 2 5 13 11 21 24 24 22 20 19 20 19 18 16 14 12 12 12 14 16 14 15 14 14 15 15 14 15 16 16 16 17 17 17 15
5 3 2 1 3 4 3 3 5 3 2 2 1 4 2 2 6 16 26 25 25 23 21 18 21 20 20 17 14 14 14 14 13 15 14 13 14 14 13 13 14 15 15 16 15 17 15 15 14
4 3 2 2 4 4 4 3 4 2 2 3 5 6 5 6 19 26 24 25 24 24 21 18 21 22 20 17 15 14 15 16 15 14 13 12 11 13 12 12 13 14 14 15 16 15 15 13 12
4 3 3 2 3 3 4 6 4 5 4 4 9 6 0 10 23 28 25 24 24 23 21 20 20 24 21 19 16 14 17 17 15 13 14 13 12 12 12 11 12 13 15 16 16 15 14 12 11
5 1 3 3 3 5 3 5 3 7 6 2 3 6 5 12 26 29 26 26 26 24 22 22 21 23 22 21 18 17 16 17 15 14 14 14 14 13 13 11 12 12 14 15 15 14 13 10 10
7 3 2 2 4 5 1 3 2 0 7 2 4 6 4 30 30 29 27 28 27 26 25 25 24 23 21 21 20 18 16 16 15 14 13 14 14 13 12 11 12 12 13 14 15 14 11 9 7
4 4 4 2 4 5 4 5 5 4 5 3 2 1 17 35 33 28 25 24 28 32 30 28 26 25 24 22 22 21 19 18 16 15 15 14 13 13 12 11 11 12 12 13 13 12 10 8 7
6 5 4 4 9 11 7 4 4 5 4 7 12 8 19 25 25 26 25 29 35 37 33 31 29 27 26 25 24 23 21 19 17 17 16 15 15 14 13 13 13 13 13 13 12 10 8 6 6
5 10 7 6 6 10 10 8 5 8 8 6 7 16 22 18 23 26 26 27 31 35 37 34 31 29 28 27 26 25 25 23 20 19 18 18 16 15 14 14 13 14 13 13 11 9 8 7 7
5 5 6 7 7 10 10 10 8 8 6 1 10 13 19 19 27 26 26 27 33 35 38 38 35 33 31 29 28 27 26 25 23 21 21 20 18 16 14 14 14 14 14 13 11 9 8 8 7
12 6 5 3 7 7 11 11 2 8 6 4 10 16 18 18 28 23 25 27 35 38 39 38 37 36 34 33 31 30 28 26 24 24 23 22 17 18 16 15 15 15 15 13 12 11 9 8 8
4 4 5 6 4 5 8 13 9 10 2 8 10 12 12 17 22 27 34 33 37 38 38 38 38 36 36 34 32 32 30 28 27 26 25 24 20 20 17 17 17 17 15 14 13 12 11 10 9
4 4 1 4 6 6 5 17 12 10 6 10 10 9 12 14 23 33 31 32 37 33 37 39 38 38 37 35 34 32 32 30 28 27 26 25 23 22 20 20 20 17 17 17 15 14 13 12 12
2 4 4 4 7 3 12 8 11 11 9 12 10 11 12 15 17 27 28 31 35 42 37 38 40 41 40 36 35 34 32 31 30 29 28 27 27 25 24 24 22 20 19 18 17 17 15 14 12
6 5 4 6 5 6 12 18 17 11 7 14 11 9 12 13 20 30 31 35 36 38 40 40 40 41 41 39 36 36 34 32 31 30 29 29 29 28 27 26 24 22 22 22 20 20 17 15 13
6 9 10 6 5 6 12 17 19 16 10 10 9 10 12 15 24 24 31 33 30 34 36 42 42 42 42 40 37 37 36 34 33 33 32 31 31 30 29 29 28 26 27 25 23 21 19 18 14
5 9 11 4 4 3 9 18 20 20 16 19 18 13 11 16 12 19 26 30 35 36 43 43 44 45 45 39 39 33 34 38 39 36 35 35 34 32 32 32 31 30 29 27 26 24 21 20 15
16 18 7 5 2 4 4 16 21 21 10 16 16 14 16 17 16 16 20 31 36 38 40 42 47 43 45 42 35 33 30 32 33 38 38 38 37 35 35 35 34 33 32 31 30 28 26 23 19
19 9 5 4 3 4 6 10 18 12 21 22 19 18 21 19 14 16 18 24 32 39 39 42 39 42 44 42 37 39 36 33 32 33 41 43 39 39 38 37 36 35 34 34 33 31 30 27 26
8 9 11 7 6 3 4 4 7 9 14 16 19 21 22 23 19 17 18 30 34 39 38 41 41 43 43 45 44 41 33 30 30 33 35 42 45 43 41 40 38 38 36 35 35 34 33 33 32
8 5 3 2 2 6 8 8 11 7 7 9 13 15 21 20 14 15 24 25 28 32 35 37 38 44 44 45 44 41 39 33 30 34 34 36 40 42 44 44 41 39 40 39 37 35 36 36 36
9 9 3 4 4 10 8 10 20 5 5 7 9 13 10 10 10 13 13 16 25 31 36 37 37 36 43 45 46 44 43 38 36 36 37 32 34 36 40 42 43 42 43 42 40 39 37 38 40
17 11 3 5 5 2 1 10 7 12 16 15 10 16 7 9 9 11 13 17 24 31 37 37 37 37 41 43 44 46 42 39 40 37 36 37 37 40 38 37 38 42 41 42 42 41 40 39 40
6 7 2 2 2 2 5 8 6 13 10 12 12 9 13 11 9 11 9 19 24 29 35 39 38 38 38 41 43 41 41 41 40 39 37 38 39 38 36 34 33 35 38 40 41 42 42 40 40
10 11 4 3 4 5 6 6 9 4 14 19 8 10 12 10 10 9 8 15 26 30 34 37 38 38 40 44 42 41 44 44 42 35 39 39 37 35 35 33 32 33 35 37 39 39 39 38 39
6 8 6 5 4 6 3 8 9 19 15 7 10 8 11 10 10 9 7 9 14 23 26 31 33 34 35 39 39 38 37 39 38 37 38 39 37 37 35 34 34 35 35 36 37 38 37 37 36
17 11 13 8 11 4 2 11 4 8 5 6 11 9 7 8 7 8 7 8 8 13 21 27 30 34 37 38 37 38 37 36 37 37 39 39 39 37 37 35 35 36 36 36 37 35 34 35 34
Wind_Direction
339 343 346 37 42 59 300 266 148 125 98 332 103 143 156 91 167 212 168 149 162 161 158 160 157 154 145 143 136 131 122 119 115 114 115 112 107 107 105 106 105 105 104 103 98 90 87 89 91
340 348 28 79 78 43 283 265 166 215 141 137 97 95 61 123 106 129 138 168 165 159 161 158 157 157 150 144 141 135 127 123 123 121 119 117 112 107 102 101 100 100 102 107 102 94 92 97 92
351 18 69 83 102 179 240 233 167 115 164 180 97 58 140 179 69 161 191 163 163 161 162 160 160 160 153 149 146 139 136 132 128 121 129 128 120 115 108 101 99 103 108 111 105 96 94 103 95
360 22 36 78 247 257 224 195 177 144 180 60 127 74 34 228 160 180 164 165 165 161 163 162 165 161 158 158 153 149 145 141 142 134 136 121 118 116 113 110 107 107 110 112 109 103 102 105 99
40 63 50 42 273 275 270 169 159 162 126 122 127 166 59 83 166 165 162 168 169 165 166 168 171 167 164 163 161 158 153 149 145 157 141 131 125 122 119 114 113 115 117 123 116 112 108 109 103
22 61 76 233 252 283 292 190 166 169 170 165 87 122 173 177 159 163 167 172 173 168 168 168 174 173 172 172 170 168 165 163 163 163 154 141 132 126 121 116 112 119 122 126 127 119 113 113 111
20 50 228 215 268 295 229 152 181 178 170 232 150 130 302 176 171 168 170 173 175 174 172 171 176 178 176 177 182 175 171 171 173 159 163 158 150 135 126 128 120 123 130 134 137 132 122 116 115
331 34 290 238 204 261 259 179 207 168 208 86 162 174 200 198 176 171 172 175 178 180 179 176 172 179 183 183 184 175 171 174 172 166 164 163 155 142 145 141 128 129 134 136 139 139 134 124 119
349 283 238 246 174 254 324 221 182 293 130 205 186 163 211 167 172 170 172 177 181 185 187 184 180 180 180 180 181 180 174 172 169 168 169 166 162 162 159 150 141 138 142 143 146 148 146 141 131
106 298 227 315 317 296 287 228 201 171 151 232 248 250 145 157 167 168 177 181 183 188 191 192 189 185 185 181 182 185 181 178 176 173 173 172 170 167 168 162 158 152 149 149 152 157 158 153 154
160 204 315 298 327 342 303 250 208 181 240 211 198 168 159 163 175 179 187 189 190 193 194 195 194 191 191 187 186 189 189 188 185 183 181 179 177 176 177 174 172 170 170 172 173 175 183 179 165
187 231 226 280 333 335 311 310 240 198 220 210 193 168 162 174 183 191 191 194 191 197 201 199 199 198 198 197 195 198 194 195 194 192 188 186 186 188 189 187 185 185 186 189 190 192 191 191 194
168 213 212 242 304 313 309 276 251 248 236 294 143 162 178 182 194 198 201 198 198 201 205 204 203 203 202 202 201 200 199 200 201 199 197 196 200 195 197 200 199 197 197 202 206 205 207 206 210
185 184 231 265 283 297 290 277 348 269 184 127 163 182 189 190 194 196 199 200 203 206 208 208 206 208 206 207 206 207 206 206 207 208 207 207 212 210 208 208 209 211 214 216 218 217 220 220 227
148 204 223 205 220 244 323 283 218 243 223 183 197 196 202 204 196 201 206 203 206 209 211 211 209 210 211 212 212 214 213 210 210 213 213 215 218 213 218 216 216 216 221 222 222 223 225 230 237
191 241 190 189 180 232 169 266 285 245 196 222 214 209 204 214 207 211 209 210 211 208 212 215 213 212 214 214 215 219 220 219 218 217 217 220 223 219 222 223 225 223 224 225 227 227 230 232 239
212 245 199 288 182 253 201 275 251 240 206 237 212 214 212 222 226 227 217 213 212 213 211 214 216 217 217 217 219 222 224 223 223 220 223 224 226 225 227 229 229 225 228 229 231 232 234 240 243
194 236 227 217 179 189 260 257 267 274 248 236 227 217 221 219 225 222 218 216 216 215 213 215 217 220 221 220 222 225 227 228 227 227 227 227 229 229 230 232 234 231 231 231 230 233 236 240 241
179 205 227 236 162 160 239 256 260 261 255 264 245 231 225 225 229 225 223 219 215 216 212 215 214 217 217 214 216 221 223 226 227 229 231 231 233 231 230 232 234 231 232 234 235 234 238 238 242
220 213 226 316 161 196 238 258 258 257 246 245 244 239 225 239 228 226 218 214 213 213 217 217 218 217 219 213 215 215 220 226 229 231 231 232 234 233 231 234 234 233 233 234 234 232 235 238 240
228 225 200 220 341 256 332 265 262 255 231 237 242 239 238 225 229 225 211 209 211 211 213 213 220 215 218 215 213 214 219 224 228 230 233 233 232 233 233 235 236 236 235 236 235 232 231 233 237
230 193 211 184 219 239 164 287 257 251 239 241 241 238 238 237 223 224 217 215 210 214 214 215 212 216 219 218 210 210 213 219 224 226 231 233 232 233 235 236 238 239 238 237 238 237 233 233 236
228 161 199 228 274 266 174 278 271 236 230 237 237 238 239 234 224 211 213 217 213 217 211 212 213 213 217 218 214 214 213 218 221 226 229 232 236 235 236 237 238 239 240 241 241 239 234 234 235
127 83 80 115 149 246 192 194 256 229 211 234 241 238 236 240 226 222 218 218 215 215 210 209 205 213 215 217 213 213 216 215 215 223 227 230 233 237 237 237 239 241 241 242 242 242 239 237 237
156 138 200 184 194 242 184 196 242 250 236 249 260 259 234 232 223 221 208 201 208 205 207 206 203 204 210 214 217 216 219 217 220 222 226 227 231 232 236 236 239 242 242 243 242 242 241 240 239
196 185 196 221 197 197 235 224 244 234 242 261 257 252 267 255 230 223 218 209 206 203 204 203 202 204 208 210 214 220 220 219 223 227 227 230 233 239 241 241 241 242 243 242 243 244 244 244 245
167 201 185 89 147 351 222 285 283 269 246 253 234 224 242 242 244 238 221 214 210 203 205 205 204 207 205 209 214 215 218 220 224 226 231 233 238 240 243 246 245 244 243 243 243 244 244 244 247
191 139 158 154 218 239 260 278 240 304 253 250 251 214 240 244 250 247 226 218 220 219 217 213 211 207 207 214 214 215 221 225 227 227 231 233 235 239 244 246 248 248 247 244 244 242 244 244 245
158 182 202 170 190 225 263 255 208 216 238 263 274 260 239 218 226 231 239 231 228 225 222 217 213 211 210 215 216 217 222 227 229 227 233 237 240 243 244 246 248 248 249 249 245 244 243 241 246
216 208 191 201 218 231 213 257 235 217 242 268 271 276 270 252 238 231 228 232 225 217 214 214 216 217 220 221 220 222 226 232 231 232 235 238 240 243 246 247 247 248 248 248 246 242 238 239 243